Location: Melbourne
(37.8170°S, 144.9670°E)
Time: 23:19:04
(UTC+11:00)

ADEOS Rocket - Visible Passes

Search period start: 08 February 2016 00:00
Search period end: 18 February 2016 00:00
Orbit: 858 x 1308 km, 98.7° (Epoch: 08 February)

Date Brightness Start Highest point End Pass type
(mag) Time Alt. Az. Time Alt. Az. Time Alt. Az.
08 Feb 4.5 05:36:11 10° NE 05:42:29 48° ESE 05:49:28 10° S visible
09 Feb 5.8 04:49:15 10° ENE 04:54:17 22° ESE 04:59:39 10° SSE visible
09 Feb 6.8 21:20:47 10° SSW 21:23:39 12° SW 21:26:29 10° WSW visible
10 Feb 4.2 05:43:39 10° NE 05:50:09 55° ESE 05:57:24 10° S visible
11 Feb 5.6 04:56:24 10° ENE 05:01:53 26° ESE 05:07:45 10° S visible
11 Feb 6.9 21:30:04 10° SW 21:31:12 10° SW 21:32:21 10° WSW visible
12 Feb 6.4 04:11:47 10° ESE 04:14:02 12° SE 04:16:20 10° SE visible
12 Feb 4.0 05:51:10 10° NNE 05:57:52 64° ESE 06:05:18 10° S visible
13 Feb 5.4 05:03:38 10° ENE 05:09:30 30° ESE 05:15:49 10° S visible
14 Feb 6.3 04:18:12 10° E 04:21:35 14° SE 04:25:04 10° SSE visible
14 Feb 3.8 05:58:44 10° NNE 06:05:35 74° ESE 06:13:10 10° S visible
14 Feb 6.3 20:45:49 10° SSW 20:51:03 20° WSW 20:56:05 10° WNW visible
15 Feb 5.2 05:10:57 10° NE 05:17:09 35° ESE 05:23:50 10° S visible
16 Feb 6.2 04:24:58 10° E 04:29:09 16° SE 04:33:29 10° SSE visible
16 Feb 3.6 06:06:21 10° NNE 06:13:19 84° ESE 06:21:02 10° SSW visible
16 Feb 6.4 20:54:02 10° SSW 20:58:39 17° WSW 21:03:05 10° W visible
17 Feb 4.9 05:18:19 10° NE 05:24:49 40° ESE 05:31:49 10° S visible
